STARLINK-36589

Last updated on Sun Mar 15 2026 00:02:07 GMT+0000 (Coordinated Universal Time)

1 67843U 26033Y 26073.58335648 -.01938282 00000+0 -20316-1 0 9999 2 67843 42.9990 241.5646 0001304 275.7709 230.7704 15.66646397 5456
UTC large
Height (km)
Speed (km/s)
/
Latitude / Longitude
Inclination (degrees)
Orbital Period (minutes)
Azimuth
Elevation
Range (km)
Doppler Factor

Next 0 passes for location: London (51.5072 / 0.1276)

Sorry there are no passes over London.